カタログに戻る

SL-16 DEB

運用中LEO
NORAD 22353·DEBRIS·🇷🇺 Russia

打ち上げ Dec 25, 1992 から Baikonur Cosmodrome

Loading…

次のパス (今後24時間)

TLE

最新Source: Space-Track

元期: Sep 14, 2026, 10:14 UTC

1 22353U 92093AS  26257.42676344  .00000467  00000-0  25860-3 0  9997
2 22353  70.9704  46.1846 0109018 101.9545 291.0739 14.13412570724414

AllMySatでSL-16 DEBをリアルタイム追跡

Download on the App Store